Weather History for KCBK - March, 2013

Change the Weather History Date:

Thursday, March 21, 2013

  Actual Average (KGLD) Record (KGLD)
Temperature  
Mean Temperature 37 °F 42 °F  
Max Temperature 48 °F 56 °F 84 °F (1907)
Min Temperature 26 °F 28 °F 0 °F (1913)
Degree Days  
Heating Degree Days 28 23  
Month to date heating degree days 542  
Since 1 July heating degree days 4959  
Cooling Degree Days 0 0  
Month to date cooling degree days 0  
Year to date cooling degree days 0  
Moisture  
Dew Point 28 °F    
Average Humidity 69    
Maximum Humidity 93    
Minimum Humidity 50    
Precipitation  
Precipitation 0.00 in 0.04 in 0.88 in (1979)
Month to date precipitation 0.67  
Year to date precipitation 1.54  
Snow  
Snow 0.00 in 0.20 in - ()
Month to date snowfall 4.3  
Since 1 July snowfall 28.3  
Snow Depth -    
Sea Level Pressure  
Sea Level Pressure 29.72 in    
Wind  
Wind Speed 14 mph (ESE)    
Max Wind Speed 20 mph    
Max Gust Speed 25 mph    
Visibility 10 miles    
Events Rain , Snow    
T = Trace of Precipitation, MM = Missing Value Source: NWS Daily Summary

Daily Weather History Graph

Daily Weather History Graph

Search for Another Location

Airport or City:

Trip Planner

Search our weather history database for the weather conditions in past years. The results will help you decide how hot, cold, wet, or windy it might be!

Date:

Astronomy

Mar. 21, 2013 Rise Set
Actual Time 7:45 AM CDT 7:57 PM CDT
Civil Twilight 7:18 AM CDT 8:24 PM CDT
Nautical Twilight 6:47 AM CDT 8:55 PM CDT
Astronomical Twilight 6:15 AM CDT 9:27 PM CDT
Moon 2:30 PM CDT (3/21) 4:07 AM CDT (3/21)
Length of Visible Light 13h 05m
Length of Day
12h 11m
Waxing Gibbous, 69% of the Moon is Illuminated
Mar 21
Waxing Gibbous
Mar 27
Full
Apr 2
Last Quarter
Apr 10
New
Apr 18
First Quarter

Hourly Weather History & Observations

Time (CDT) Temp. Windchill Dew Point Humidity Pressure Visibility Wind Dir Wind Speed Gust Speed Precip Events Conditions
12:15 AM 39.2 °F 29.6 °F 28.4 °F 65% 29.82 in 10.0 mi SE 19.6 mph 25.3 mph N/A   Scattered Clouds
12:35 AM 37.4 °F 27.2 °F 28.4 °F 70% 29.81 in 10.0 mi SE 19.6 mph 25.3 mph N/A   Clear
12:55 AM 37.4 °F 27.5 °F 28.4 °F 70% 29.80 in 10.0 mi SE 18.4 mph 24.2 mph N/A   Clear
1:15 AM 37.4 °F 27.5 °F 28.4 °F 70% 29.79 in 10.0 mi SE 18.4 mph 24.2 mph N/A   Clear
1:55 AM 35.6 °F 25.2 °F 28.4 °F 75% 29.76 in 10.0 mi SE 18.4 mph - N/A   Clear
2:15 AM 33.8 °F 23.9 °F 28.4 °F 81% 29.77 in 10.0 mi ESE 15.0 mph - N/A   Scattered Clouds
2:35 AM 33.8 °F 23.5 °F 28.4 °F 81% 29.76 in 10.0 mi ESE 16.1 mph - N/A   Mostly Cloudy
2:55 AM 33.8 °F 23.5 °F 28.4 °F 81% 29.77 in 10.0 mi ESE 16.1 mph - N/A   Mostly Cloudy
3:15 AM 33.8 °F 25.3 °F 28.4 °F 81% 29.78 in 10.0 mi ESE 11.5 mph 17.3 mph N/A   Mostly Cloudy
3:35 AM 32.0 °F 23.0 °F 28.4 °F 87% 29.78 in 10.0 mi East 11.5 mph - N/A   Overcast
3:55 AM 32.0 °F 23.0 °F 28.4 °F 87% 29.76 in 10.0 mi ESE 11.5 mph - N/A   Overcast
4:15 AM 32.0 °F 23.0 °F 26.6 °F 80% 29.75 in 10.0 mi ESE 11.5 mph - N/A   Mostly Cloudy
4:35 AM 30.2 °F 21.3 °F 26.6 °F 86% 29.75 in 10.0 mi East 10.4 mph - N/A   Clear
4:55 AM 30.2 °F 20.8 °F 24.8 °F 80% 29.75 in 10.0 mi East 11.5 mph - N/A   Clear
5:15 AM 28.4 °F 19.7 °F 24.8 °F 86% 29.74 in 10.0 mi East 9.2 mph - N/A   Clear
5:35 AM 28.4 °F 18.5 °F 24.8 °F 86% 29.72 in 10.0 mi East 11.5 mph - N/A   Clear
5:55 AM 28.4 °F 18.5 °F 23.0 °F 80% 29.72 in 10.0 mi East 11.5 mph - N/A   Clear
6:15 AM 26.6 °F 16.8 °F 23.0 °F 86% 29.72 in 10.0 mi East 10.4 mph - N/A   Clear
6:35 AM 26.6 °F 16.8 °F 23.0 °F 86% 29.73 in 10.0 mi East 10.4 mph - N/A   Clear
6:55 AM 26.6 °F 16.8 °F 23.0 °F 86% 29.73 in 10.0 mi East 10.4 mph - N/A   Clear
7:15 AM 26.6 °F 16.8 °F 23.0 °F 86% 29.73 in 10.0 mi East 10.4 mph - N/A   Clear
7:35 AM 26.6 °F 16.8 °F 21.2 °F 80% 29.72 in 10.0 mi East 10.4 mph - N/A   Clear
7:55 AM 26.6 °F 16.8 °F 21.2 °F 80% 29.72 in 10.0 mi East 10.4 mph - N/A   Clear
8:15 AM 26.6 °F 16.8 °F 21.2 °F 80% 29.71 in 10.0 mi East 10.4 mph - N/A   Clear
8:35 AM 26.6 °F 15.7 °F 23.0 °F 86% 29.71 in 10.0 mi ESE 12.7 mph - N/A   Clear
8:55 AM 28.4 °F 17.0 °F 23.0 °F 80% 29.71 in 10.0 mi ESE 15.0 mph - N/A   Clear
9:15 AM 30.2 °F 18.1 °F 23.0 °F 75% 29.71 in 10.0 mi ESE 18.4 mph - N/A   Clear
9:35 AM 32.0 °F 20.8 °F 24.8 °F 75% 29.71 in 10.0 mi ESE 17.3 mph - N/A   Clear
9:55 AM 32.0 °F 20.8 °F 24.8 °F 75% 29.71 in 10.0 mi ESE 17.3 mph - N/A   Clear
10:15 AM 33.8 °F 23.2 °F 26.6 °F 75% 29.71 in 10.0 mi SE 17.3 mph 23.0 mph N/A   Clear
10:35 AM 33.8 °F 23.9 °F 26.6 °F 75% 29.71 in 10.0 mi SE 15.0 mph 21.9 mph N/A   Clear
10:55 AM 35.6 °F 25.9 °F 26.6 °F 70% 29.70 in 10.0 mi SE 16.1 mph 19.6 mph N/A   Clear
11:15 AM 37.4 °F 28.9 °F 28.4 °F 70% 29.70 in 10.0 mi ESE 13.8 mph 18.4 mph N/A   Clear
11:35 AM 39.2 °F 31.2 °F 28.4 °F 65% 29.69 in 10.0 mi SE 13.8 mph 19.6 mph N/A   Clear
11:55 AM 41.0 °F 34.3 °F 28.4 °F 61% 29.68 in 10.0 mi East 11.5 mph 18.4 mph N/A   Clear
12:15 PM 41.0 °F 33.1 °F 28.4 °F 61% 29.68 in 10.0 mi SE 15.0 mph - N/A   Clear
12:35 PM 42.8 °F 37.0 °F 28.4 °F 57% 29.67 in 10.0 mi SE 10.4 mph - N/A   Clear
12:55 PM 42.8 °F 36.2 °F 28.4 °F 57% 29.67 in 10.0 mi ESE 12.7 mph 19.6 mph N/A   Clear
1:15 PM 44.6 °F 38.4 °F 28.4 °F 53% 29.67 in 10.0 mi ESE 12.7 mph 17.3 mph N/A   Clear
1:35 PM 44.6 °F 37.2 °F 28.4 °F 53% 29.66 in 10.0 mi SE 17.3 mph - N/A   Clear
1:55 PM 46.4 °F 40.4 °F 28.4 °F 50% 29.66 in 10.0 mi ESE 13.8 mph 21.9 mph N/A   Clear
2:15 PM 46.4 °F 40.1 °F 30.2 °F 53% 29.64 in 10.0 mi ESE 15.0 mph - N/A   Clear
2:35 PM 46.4 °F 40.4 °F 30.2 °F 53% 29.64 in 10.0 mi ESE 13.8 mph - N/A   Clear
2:55 PM 46.4 °F 40.7 °F 28.4 °F 50% 29.63 in 10.0 mi East 12.7 mph - N/A   Clear
3:15 PM 46.4 °F 40.1 °F 28.4 °F 50% 29.64 in 10.0 mi SE 15.0 mph 18.4 mph N/A   Clear
3:55 PM 46.4 °F 41.9 °F 30.2 °F 53% 29.67 in 10.0 mi East 9.2 mph - N/A   Overcast
4:15 PM 46.4 °F 43.5 °F 30.2 °F 53% 29.67 in 10.0 mi ESE 5.8 mph - N/A   Overcast
4:35 PM 46.4 °F 41.9 °F 30.2 °F 53% 29.66 in 10.0 mi ESE 9.2 mph - N/A   Overcast
4:55 PM 48.2 °F - 30.2 °F 50% 29.64 in 10.0 mi East 10.4 mph - N/A   Scattered Clouds
5:15 PM 48.2 °F - 30.2 °F 50% 29.64 in 10.0 mi East 13.8 mph - N/A   Mostly Cloudy
5:35 PM 46.4 °F 40.1 °F 30.2 °F 53% 29.63 in 10.0 mi East 15.0 mph 18.4 mph N/A   Overcast
5:55 PM 46.4 °F 41.1 °F 30.2 °F 53% 29.65 in 10.0 mi ESE 11.5 mph - N/A   Overcast
6:15 PM 46.4 °F 39.8 °F 30.2 °F 53% 29.64 in 10.0 mi ESE 16.1 mph - N/A   Overcast
6:35 PM 46.4 °F 40.4 °F 30.2 °F 53% 29.64 in 10.0 mi ESE 13.8 mph - N/A   Overcast
6:55 PM 46.4 °F 40.4 °F 32.0 °F 57% 29.66 in 10.0 mi East 13.8 mph - N/A   Overcast
7:15 PM 46.4 °F 40.1 °F 30.2 °F 53% 29.66 in 10.0 mi ESE 15.0 mph - N/A   Overcast
7:35 PM 46.4 °F 40.1 °F 30.2 °F 53% 29.67 in 10.0 mi East 15.0 mph 19.6 mph N/A   Overcast
7:55 PM 44.6 °F 38.1 °F 30.2 °F 57% 29.68 in 10.0 mi East 13.8 mph - N/A   Overcast
8:15 PM 44.6 °F 38.8 °F 30.2 °F 57% 29.68 in 10.0 mi East 11.5 mph - N/A   Overcast
8:35 PM 42.8 °F 37.0 °F 30.2 °F 61% 29.69 in 10.0 mi ENE 10.4 mph - N/A   Overcast
8:55 PM 42.8 °F 36.6 °F 30.2 °F 61% 29.72 in 10.0 mi ENE 11.5 mph - N/A   Overcast
9:15 PM 42.8 °F 37.0 °F 28.4 °F 57% 29.77 in 10.0 mi NE 10.4 mph - N/A   Overcast
9:35 PM 41.0 °F 34.3 °F 26.6 °F 57% 29.80 in 10.0 mi NNE 11.5 mph - N/A   Overcast
9:55 PM 41.0 °F 35.8 °F 26.6 °F 57% 29.84 in 10.0 mi North 8.1 mph - N/A   Overcast
10:15 PM 39.2 °F 35.9 °F 30.2 °F 70% 29.85 in 10.0 mi North 4.6 mph - N/A   Overcast
10:35 PM 37.4 °F 33.8 °F 28.4 °F 70% 29.85 in 10.0 mi East 4.6 mph - N/A   Overcast
10:55 PM 35.6 °F - 32.0 °F 87% 29.86 in 1.2 mi Calm Calm - N/A Snow Light Snow
11:15 PM 33.8 °F - 32.0 °F 93% 29.87 in 5.0 mi Calm Calm - N/A Rain Light Rain
11:35 PM 33.8 °F - 32.0 °F 93% 29.87 in 10.0 mi Calm Calm - N/A Rain Light Rain
11:55 PM 33.8 °F 24.8 °F 32.0 °F 93% 29.83 in 7.0 mi ESE 12.7 mph - N/A Snow Light Snow